Home   Weather   Bludenz   Past weeks

Flag for Austria Past Weather in Bludenz, Vorarlberg, Austria — Yesterday and Last 2 Weeks


Passing clouds.

Feels Like: N/A
Forecast: 45 / 68 °F
Wind: 7 mph from Northeast

Location: Feldkirch

Current Time: Oct 24, 2016 at 12:11:30 AM

Latest Report: Oct 23, 2016 at 11:00 PM

Visibility: 2 mi

Pressure: N/A

Humidity: N/A

Dew Point: N/A

Location of BludenzLocation

Past Weather in Bludenz — Graph


Bludenz Temperature Yesterday

Maximum temperature yesterday: 62 °F (at 1:00 PM)
Minimum temperature yesterday: 35 °F (at 3:00 AM)
Average temperature yesterday: 48 °F

High & Low Weather Summary for the Past Weeks

High62 °F (Oct 16, 3:00 PM)100% (Oct 17, 4:00 AM)30.27 "Hg (Oct 17, 4:00 AM)
Low33 °F (Oct 13, 7:00 AM)38% (Oct 23, 1:00 PM)29.62 "Hg (Oct 14, 7:00 PM)
Average47 °F85%30.05 "Hg
* Reported Oct 8 11:00 PM — Oct 23 11:00 PM, Bludenz, Weather by CustomWeather, © 2016

Note: Actual official high and low records may vary slightly from our data, if they occured in-between our weather recording intervals... More about our weather records


Bludenz Weather History for the Previous 24 Hours

Scroll right to see more
Time TempWeatherWind HumidityBarometerVisibility
11:00 PM
Sun, Oct 23
N/APassing clouds.7 mphN/AN/A2 mi
10:00 PM47 °FCool.1 mph95%29.91 "HgN/A
9:00 PM47 °FCool.1 mph95%29.91 "HgN/A
8:00 PM47 °FCool.1 mph94%29.90 "HgN/A
7:00 PM47 °FSprinkles. Overcast.1 mph93%29.90 "HgN/A
6:00 PM48 °FCool.2 mph90%29.89 "HgN/A
5:00 PM49 °FCool.1 mph81%29.87 "HgN/A
4:00 PM49 °FCool.2 mph84%29.88 "HgN/A
3:00 PM53 °FCool.1 mph78%29.86 "HgN/A
2:00 PM60 °FPassing clouds.1 mph48%29.82 "Hg2 mi
1:00 PM62 °FRefreshingly cool.3 mph38%29.82 "HgN/A
12:00 PM60 °FRefreshingly cool.3 mph39%29.83 "HgN/A
11:00 AM57 °FPartly sunny.2 mph40%29.86 "Hg16 mi
10:00 AM54 °FCool.3 mph42%29.88 "HgN/A
9:00 AM52 °FCool.2 mph48%29.89 "HgN/A
8:00 AM43 °FQuite cool.1 mph75%29.91 "HgN/A
7:00 AM41 °FPassing clouds.2 mph79%29.91 "Hg16 mi
6:00 AM42 °FQuite cool.1 mph77%29.91 "HgN/A
5:00 AM42 °FQuite cool.1 mph80%29.92 "HgN/A
4:00 AM38 °FChilly.1 mph93%29.95 "HgN/A
3:00 AM35 °FChilly.No wind97%29.99 "HgN/A
1:00 AM36 °FChilly.1 mph96%30.00 "HgN/A
12:00 AM37 °FChilly.No wind96%30.00 "HgN/A
Weather by CustomWeather, © 2016

See weather overviewHow to use our weather pages